Showing default

GALAXY 16, 29236

Orbit data source: Space-Track

GALAXY 16, 29236 is a payload satellite owned by Panamsat (US) in GEO that was launched on Sun, 18 Jun 2006 UTC via a ZENIT-3SL launch vehicle from the Sea Launch (SEAL). Payload-class satellites include a variety of spacecraft equipped with specific instruments for various scientific and technological missions. These include communications satellites like Starlink; space stations such as the ISS; scientific satellites like the Hubble; Earth observation satellites from companies like Planet Labs, Umbra, and HawkEye 360; GPS; miniature CubeSats for education and research; and military/defense satellites.

Loading next visibility...
Identifier
29236, 2006-023A
Orbit
GEO
Country
Flag of USUS
Related business
Manufacturer
SS/Loral
Mission
Operational Commercial Communications
Bus & Motor
SSL-1300, R-4D-11-164
Mass
4,640 kg wet, ~2,000 kg dry
Launch date (UTC)
2006-06-18 (20 years ago)
Launch vehicle
ZENIT-3SL
Launch site
Sea Launch (SEAL)
Object type
Payload
Rocket body
Debris
Shape & HBR
Box + 2 Pan, 15.5 m
Radar Cross Section
40.765 m², Large (>1 m²)

Expand to show TLE details & history
Last TLE update: 17 hours ago

TLE from 17 hours ago
0 GALAXY 16
1 29236U 06023A   26171.37239705 -.00000131  00000-0  00000+0 0  9991
2 29236   0.0399 169.8247 0002593 277.9696 215.8483  1.00271600 73005
Epoch: 2026-06-20T08:56Z
TLE epoch observation values (Epoch: 2026-06-20T08:56:15.105Z)
Latitude
-0.00924°
Longitude
-99.01343°
Altitude
35,795.038 km
Speed
3.074 km/s
True Right ascension
20h 14m 32s
True Declination
0° 00' 33"
Sunlit
Object was in daylight at epoch
Visualization orbit readout
Latitude
Unknown
Longitude
Unknown
Altitude
Unknown
Speed
Unknown
Apparent Right ascension
Unknown
Apparent Declination
Unknown
Sunlit
N/A
Visualization observer readout
Local Sidereal Time
12:25:55
Azimuth
Unknown
Elevation
Unknown
Doppler factor
Unknown
Orbital elements
Apogee altitude
35,798.651 km
Perigee altitude
35,776.784 km
Semi-major axis
42,165.854 km
Eccentricity
0.00026
Inclination
0.0399°
RAAN
169.8247°
Arg. of periapsis
277.9696°
True anomaly
215.8309°
Mean anomaly
215.8483°
Eccentric anomaly
215.8396°
Mean motion
0.25067 °/min
Orbital period
1,436.15 mins
BSTAR
0
Loading maneuver chart data...
Computing Atmospheric mass density...
Loading historical data...
Loading historical data...
Loading historical data...
Loading historical data...
Loading historical data...
Loading historical data...
Loading historical data...
Other satellites on launch #23 in the year 2006 (2006-06-18 UTC)

Documentation

Showing up to 5 results
|